EW9216 Weather Reports


time (UTC)temp
C
wind
direction
speed
KPH
gust
KPH
rain 1hr
cm
rain 24hr
cm
rain mn
cm
humidity
%
barometer
mb
20260507213006 29 360 9.7 24.1 0.00 0.00 0.00 20 1008.6
20260507211505 29 360 11.3 19.3 0.00 0.00 0.00 19 1008.9
20260507210003 28 360 3.2 22.5 0.00 0.00 0.00 18 1009.0
20260507204501 29 360 11.3 22.5 0.00 0.00 0.00 19 1009.0
20260507203110 29 360 1.6 17.7 0.00 0.00 0.00 20 1009.2
20260507201611 28 360 8.0 22.5 0.00 0.00 0.00 22 1009.4
20260507200103 28 360 12.9 22.5 0.00 0.00 0.00 23 1009.4
20260507194556 28 360 8.0 22.5 0.00 0.00 0.00 22 1009.6
20260507193051 28 360 0.0 17.7 0.00 0.00 0.00 23 1009.8
20260507191551 27 360 4.8 22.5 0.00 0.00 0.00 24 1010.0
20260507190046 27 360 3.2 22.5 0.00 0.00 0.00 26 1010.1
20260507184543 27 360 0.0 19.3 0.00 0.00 0.00 27 1010.2
20260507183040 26 230 0.0 12.9 0.00 0.00 0.00 29 1010.3
20260507181537 26 360 0.0 12.9 0.00 0.00 0.00 30 1010.5
20260507180042 25 360 0.0 6.4 0.00 0.00 0.00 31 1010.6
20260507174530 25 203 0.0 8.0 0.00 0.00 0.00 30 1010.8
20260507173030 25 360 0.0 1.6 0.00 0.00 0.00 30 1010.8
20260507171522 25 360 0.0 12.9 0.00 0.00 0.00 31 1010.8
20260507170058 24 360 0.0 0.0 0.00 0.00 0.00 33 1010.9
20260507164553 23 360 0.0 1.6 0.00 0.00 0.00 35 1011.0
20260507163052 23 360 0.0 6.4 0.00 0.00 0.00 39 1011.1
20260507161547 23 360 0.0 6.4 0.00 0.00 0.00 39 1011.1
20260507160043 23 209 0.0 0.0 0.00 0.00 0.00 39 1011.1
20260507154537 22 360 0.0 1.6 0.00 0.00 0.00 41 1011.1
20260507153035 22 360 0.0 1.6 0.00 0.00 0.00 42 1011.1
20260507151529 22 360 0.0 0.0 0.00 0.00 0.00 43 1011.1
20260507150026 21 17 0.0 0.0 0.00 0.00 0.00 43 1011.1
20260507144523 21 360 0.0 0.0 0.00 0.00 0.00 42 1011.2
20260507143025 21 360 0.0 0.0 0.00 0.00 0.00 43 1011.2
20260507141516 20 360 0.0 0.0 0.00 0.00 0.00 45 1011.2
20260507140023 19 360 0.0 0.0 0.00 0.00 0.00 48 1011.1
20260507134507 18 360 0.0 0.0 0.00 0.00 0.00 52 1011.0
20260507133003 17 360 0.0 0.0 0.00 0.00 0.00 54 1010.9
20260507131603 16 360 0.0 0.0 0.00 0.00 0.00 56 1010.7
20260507130055 16 360 0.0 0.0 0.00 0.00 0.00 58 1010.5
20260507124555 15 360 0.0 0.0 0.00 0.00 0.00 58 1010.6
20260507123054 15 360 0.0 0.0 0.00 0.00 0.00 57 1010.4
20260507121551 15 360 0.0 0.0 0.00 0.00 0.00 57 1010.2
20260507120052 15 360 0.0 0.0 0.00 0.00 0.00 56 1010.2
20260507114549 15 360 0.0 0.0 0.00 0.00 0.00 56 1010.3
20260507113048 15 360 0.0 0.0 0.00 0.00 0.00 56 1010.4
20260507111548 15 360 0.0 0.0 0.00 0.00 0.00 55 1010.4
20260507110051 15 360 0.0 0.0 0.00 0.00 0.00 56 1010.4
20260507104545 15 360 0.0 0.0 0.00 0.00 0.00 56 1010.3
20260507103043 16 360 0.0 0.0 0.00 0.00 0.00 56 1010.2
20260507101558 16 360 0.0 0.0 0.00 0.00 0.00 56 1010.4
20260507100039 16 360 0.0 0.0 0.00 0.00 0.00 56 1010.5
20260507094541 16 360 0.0 0.0 0.00 0.00 0.00 55 1010.4
20260507093037 16 360 0.0 0.0 0.00 0.00 0.00 55 1010.5
20260507091551 16 360 0.0 0.0 0.00 0.00 0.00 54 1010.5
20260507090032 17 360 0.0 0.0 0.00 0.00 0.00 53 1010.4
20260507084528 18 360 0.0 0.0 0.00 0.00 0.00 52 1010.5
20260507083025 18 360 0.0 0.0 0.00 0.00 0.00 51 1010.6
20260507081527 19 360 0.0 0.0 0.00 0.00 0.00 51 1010.7
20260507080020 19 360 0.0 0.0 0.00 0.00 0.00 51 1010.7
20260507074517 20 360 0.0 0.0 0.00 0.00 0.00 50 1010.9
20260507073014 20 360 0.0 0.0 0.00 0.00 0.00 49 1010.9
20260507071512 20 360 0.0 0.0 0.00 0.00 0.00 48 1011.0
20260507070012 20 360 0.0 0.0 0.00 0.00 0.00 48 1011.0
20260507064513 21 360 0.0 0.0 0.00 0.00 0.00 47 1011.0
20260507063008 21 360 0.0 0.0 0.00 0.00 0.00 46 1010.9
20260507061525 21 360 0.0 0.0 0.00 0.00 0.00 48 1010.9
20260507060007 21 360 0.0 0.0 0.00 0.00 0.00 46 1010.9
20260507054507 21 360 0.0 0.0 0.00 0.00 0.00 45 1010.9
20260507053006 22 360 0.0 0.0 0.00 0.00 0.00 45 1010.8
20260507051507 22 360 0.0 1.6 0.00 0.00 0.00 44 1010.8
20260507050009 22 360 0.0 3.2 0.00 0.00 0.00 42 1010.8
20260507044506 22 360 0.0 20.9 0.00 0.00 0.00 40 1010.6
20260507043004 22 360 1.6 17.7 0.00 0.00 0.00 39 1010.4
20260507041504 23 360 0.0 12.9 0.00 0.00 0.00 38 1010.3
20260507040004 23 360 0.0 19.3 0.00 0.00 0.00 37 1010.3
20260507034503 23 360 0.0 14.5 0.00 0.00 0.00 36 1010.2
20260507033008 23 360 1.6 14.5 0.00 0.00 0.00 35 1010.0
20260507031503 24 360 1.6 19.3 0.00 0.00 0.00 34 1009.9
20260507030002 25 360 3.2 24.1 0.00 0.00 0.00 33 1009.7
20260507024501 25 360 6.4 27.4 0.00 0.00 0.00 33 1009.6
20260507023002 25 360 9.7 27.4 0.00 0.00 0.00 33 1009.4
20260507021618 26 360 4.8 25.7 0.00 0.00 0.00 33 1009.3
20260507020107 26 360 3.2 17.7 0.00 0.00 0.00 31 1009.0
20260507014615 27 360 4.8 20.9 0.00 0.00 0.00 29 1009.0
20260507013058 27 360 3.2 22.5 0.00 0.00 0.00 27 1008.9
20260507011557 28 360 1.6 19.3 0.00 0.00 0.00 17 1008.9
20260507010108 28 360 0.0 6.4 0.00 0.00 0.00 16 1008.9
20260507004556 29 360 9.7 17.7 0.00 0.00 0.00 15 1008.8
20260507003055 29 360 0.0 12.9 0.00 0.00 0.00 15 1008.8
20260507001605 29 360 0.0 17.7 0.00 0.00 0.00 15 1008.7
20260507000055 29 360 0.0 16.1 0.00 0.00 0.00 15 1008.7
20260506234555 29 360 0.0 19.3 0.00 0.00 0.00 14 1008.7
20260506233056 30 360 0.0 17.7 0.00 0.00 0.00 15 1008.7
20260506231553 29 244 0.0 20.9 0.00 0.00 0.00 14 1008.8
20260506230100 30 360 0.0 14.5 0.00 0.00 0.00 14 1008.8
20260506224550 30 360 3.2 19.3 0.00 0.00 0.00 15 1009.0
20260506223049 30 256 0.0 16.1 0.00 0.00 0.00 15 1009.0
20260506221549 29 209 1.6 30.6 0.00 0.00 0.00 16 1009.1
20260506220051 30 255 12.9 19.3 0.00 0.00 0.00 15 1009.1
20260506214546 30 360 0.0 1.6 0.00 0.00 0.00 15 1009.3